Location: Pallagorio
(39.3000°N, 16.9000°E)
Time: 18:18:51
(UTC+00:00)

Cosmos 2082 Rocket - Pass Details

Date: 24 January 2021
Orbit: 832 x 854 km, 71.0° (Epoch: 03 March)

Event Time Altitude Azimuth Distance (km) Brightness Sun altitude
Rises 18:37:41 0° 339° (NNW) 3,431 5.6 -29.7°
Reaches altitude 10° 18:40:11 10° 343° (NNW) 2,490 4.8 -30.2°
Enters shadow 18:42:34 26° 350° (N) 1,637 3.7 -30.6°
